Regional Weather Roundup
Issued by NWS

Home | Current Version | Previous Version | Text Only | Print | Product List | Glossary On
Versions: 1 2 3 4 5 6 7 8 9 10 11 12 13 14 15 16 17 18 19 20 21 22 23 24 25 26 27 28 29 30 31 32 33 34 35 36 37 38 39 40 41 42 43 44 45 46 47 48 49 50
557
ASHW40 PHFO 252312
RWRHI

WEATHER ROUNDUP FOR HAWAII
NATIONAL WEATHER SERVICE HONOLULU HI
100 PM HST WED MAY 25 2016

THIS IS AN AUTOMATED REPORT THAT HAS NOT BEEN QUALITY CONTROLLED.

NOTE..."FAIR" INDICATES FEW OR NO CLOUDS BELOW 12,000 FEET WITH NO
SIGNIFICANT WEATHER AND/OR OBSTRUCTIONS TO VISIBILITY.

* - THESE SITES REPORT LIMITED FIELDS

HIZ001>004-260000-
KAUAI-NIIHAU-

CITY           SKY/WX    TMP DP  RH WIND       PRES   REMARKS
LIHUE APT      MOSUNNY   81  69  67 NE12      30.07S
PORT ALLEN*    NOT AVBL
POIPU*         NOT AVBL
PRINCEVILLE*     N/A     81 N/A N/A E10G18      N/A
KOKOLE POINT*  NOT AVBL
MOLOAA DAIRY*    N/A     81  70  69 E10G16      N/A
WAIMEA HTS*    NOT AVBL
PUU OPAE*      NOT AVBL
PUU LUA*       NOT AVBL
MAKAHA RIDGE*  NOT AVBL
$$

HIZ005>011-260000-
OAHU-

CITY           SKY/WX    TMP DP  RH WIND       PRES   REMARKS
HONOLULU       MOSUNNY   84  66  54 NE15      30.03F
KALAELOA       PTSUNNY   82  69  64 SE9G17    30.05F
KANEOHE MCB    PTSUNNY   79  69  71 E14G22    30.03F
WHEELER FIELD  PTSUNNY   80  65  61 E13       30.04F
BELLOWS*       NOT AVBL
KAHUKU*        NOT AVBL
WHEELER*       NOT AVBL
WAIANAE HARBOR NOT AVBL
DILLINGHAM*      N/A     75  70  83 MISG        N/A
KAHUKU TRN*    NOT AVBL
KAWAILOA*        N/A     75  64  69 E13G24      N/A
KII*             N/A     79  72  78 E15         N/A
MAKUA RANGE*   NOT AVBL
OAHU FOREST NW NOT AVBL
SCHOFIELD BRK* NOT AVBL
SCHOFIELD S*   NOT AVBL
WAIANAE VLY*   NOT AVBL
KUAOKALA*      NOT AVBL
HONOULIUULI*   NOT AVBL
MOKUOLOE IS*   NOT AVBL
PALEHUA*       NOT AVBL
WAIAWA PHB*    NOT AVBL
$$

HIZ012>013-260000-
MOLOKAI-

CITY           SKY/WX    TMP DP  RH WIND       PRES   REMARKS
MOLOKAI AIRPT  CLOUDY    77  67  71 CALM      30.06S
KALAUPAPA      NOT AVBL
MAKAPULAPAI*   NOT AVBL
MOLOKAI 1*     NOT AVBL
PUU ALII*      NOT AVBL
$$

HIZ016-260000-
KAHOOLAWE-

CITY           SKY/WX    TMP DP  RH WIND       PRES   REMARKS
KAHOOLAWE*     NOT AVBL
HAKIOAWA*      NOT AVBL
HONOKANAIA*      N/A     82  69  64 E9G17       N/A
KANELOA*         N/A     72  66  83 SE9G17    30.13S
KEALIALALO*    NOT AVBL
LUA MAKIKA*    NOT AVBL
$$

HIZ014>015-260000-
LANAI-

CITY           SKY/WX    TMP DP  RH WIND       PRES   REMARKS
LANAI CITY     CLOUDY    72  68  87 VRB3      30.10F
LANAI 1*       NOT AVBL
$$

HIZ017>028-260000-
MAUI-

CITY           SKY/WX    TMP DP  RH WIND       PRES   REMARKS
KAHULUI        MOSUNNY   80  68  66 SW12G23   30.04R
KAPALUA-W MAUI PTSUNNY   82  66  57 W8        30.06S
HANA AIRPORT   NOT AVBL
HANA*            N/A     79 N/A N/A E10G20      N/A
HALEAKALA SUMM   N/A     46  46 100 SE10G25     N/A
MAALAEA BAY*   NOT AVBL
HALEAKALA*     NOT AVBL
KAUPO GAP*     NOT AVBL
KULA 1*          N/A     56  55  95 NW3         N/A
$$

HIZ023>026-260000-
BIG ISLAND OF HAWAII COAST AND LOWER SLOPES-

CITY           SKY/WX    TMP DP  RH WIND       PRES   REMARKS
KAILUA KONA    LGT RAIN  77  72  84 NW14      30.03F
HILO           PTSUNNY   80  69  69 E12       30.05F
HONOKAA*         N/A     73 N/A N/A VRB1        N/A
KAWAIHAE MWT*    N/A     77 N/A N/A W10         N/A
KAWAIHAE*      NOT AVBL
SOUTH POINT*     N/A     79 N/A N/A NE14G22     N/A
UPOLU AIRPORT*   N/A    N/A N/A N/A NE16G24     N/A
KAMUELA*       CLOUDY    73  63  68 W9        30.13F
HAKALAU*         N/A     58  55  91 E6G12       N/A
KALOKO-HONOKO* NOT AVBL
PALI 2*          N/A    N/A N/A N/A MISG        N/A
KEALAKOMO*       N/A     81  70  69 E13G18      N/A
KAUPULEHU*     NOT AVBL
KAPAPALA*        N/A     76  65  67 E5G12       N/A
LOWER KAHUKU*  NOT AVBL
PUHE CS*       NOT AVBL
PUHO CS*       NOT AVBL
PTA KEAMUKU*     N/A    N/A N/A N/A CALM        N/A
WAIKOLOA*      NOT AVBL
$$

HIZ027>028-260000-
BIG ISLAND OF HAWAII INTERIOR AND SUMMMITS-

CITY           SKY/WX    TMP DP  RH WIND       PRES   REMARKS
BRADSHAW FIELD CLOUDY    59  55  88 W10G18    30.34S
MK VISITOR CEN   N/A     46  45  93 E5          N/A
MAUNA KEA*       N/A     36  34  93 N8          N/A  WCI  29
MAUNA LOA*     NOT AVBL
MAUNA LOA 1*   NOT AVBL
PTA KIPUKA*      N/A     50  50 100 NW3         N/A
PTA RANGE 17*    N/A     66  64  94 W8          N/A
PTA WEST*        N/A     61  59  94 NW5         N/A
NENE CABIN*    NOT AVBL
AHUMOA*        NOT AVBL
PTA PORTABLE*  NOT AVBL
PUU MALI*        N/A    N/A N/A N/A MISG        N/A
$$

HIC003-260000-
NORTHWEST ISLANDS-

CITY           SKY/WX    TMP DP  RH WIND       PRES   REMARKS
MIDWAY ISLAND  CLOUDY    75  70  83 SE3       30.14S
MIDWAY NOS*    NOT AVBL
FRENCH FRIGATE NOT AVBL
$$

PHZ110>124-180-260000-
BUOY REPORTS

STATION/POSITION TIME  TEMP    WIND        PRES    WAVE   SWELL
                       AIR SEA DIR/SP/G            HT/PER HT/DIR
                 (UTC) (F)     (DEG/KT/KT) (MB)    (FT/S) (FT/D)
BUOY 51001       2300   78 80   70/ 12/ 17 1018.1F
BUOY 51101       2250   76 79  100/  4/  6 1018.5F   4/ 9   5/ 90
BUOY 51100       NOT AVBL
BUOY 51002       2250   78 79   70/ 10/ 12 1016.1F   5/ 8   5/ 90
BUOY 51003       2250   78 81   60/  6/  8 1016.9F   4/ 8   3/ 80
BUOY 51004       2250   78 79  100/ 12/ 16 1016.7F   6/ 8   5/ 70
BARBERS PT BUOY  NOT AVBL
WAIMEA BAY BUOY  2204      78                N/A     4/ 8   2/ 30
KAILUA BAY BUOY  2211      78                N/A     5/ 8   2/ 30
LANAI BUOY       2215      80                N/A     3/13   2/200
BARBERS PT 2     2203      80                N/A     3/13   2/220
PAUWELA MAUI     2209      78                N/A     6/ 8   2/ 30
HILO             2212      80                N/A     6/ 8   2/ 50
KANEOHE BAY BUOY 2206      78                N/A     4/ 8
HANALEI KAUAI    NOT AVBL
KAHULUI HARBOR   2200      79   20/  9/ 15 1017.0F
HONOLULU HARBOR  2200      79   90/  5/ 12 1018.1F
KILO NALU        NOT AVBL
HILO HARBOR      2200      78   50/  3/ 11 1017.4F
MOKUOLOE         2200   79 80              1018.2F
NAWILIWILI       2200      80   70/ 12/ 14 1018.1F
WHOTS BUOY       NOT AVBL
BUOY 51028       NOT AVBL
$$

......................KEY........................................
  SKY/WX - SKY CONDITIONS/PRESENT WEATHER
  TMP    - TEMPERATURE IN FAHRENHEIT
  DWPT   - DEWPOINT IN FAHRENHEIT
  RH     - RELATIVE HUMIDITY IN PERCENT
  WIND   - DIRECTION AND SPEED /MPH FOR ISLANDS...KTS FOR BUOYS/
  PRES   - MEAN SEA LEVEL PRESSURE IN INCHES OF HG
  VSB    - VISIBILITY IN MILES
  HX     - HEAT INDEX
  WCI    - WIND CHILL INDEX
  VRB    - VARIABLE WIND DIRECTION
  N/A    - NOT AVAILABLE




USA.gov is the U.S. government's official web portal to all federal, state and local government web resources and services.